Starlink 32842

operational
NORAD ID: 62822 Int'l Des: 2025-018 Owner: SPXS Country: US Constellation: starlink
LEOCIRCULAR

About Starlink 32842

Description loading...

Live Position

Loading 3D Globe...

Upcoming Passes

Altitude History

Altitude vs Time

uPlot chart will show altitude changes over time

Two-Line Element Set

1 62822U 25018S 25257.56541610 .00018731 00000-0 64295-3 0 9994
2 62822 53.1601 47.6277 0000937 64.0188 296.0909 15.30199944 36219
Epoch: Sep 14, 2025 • Age: 23 hours

Current Status

Altitude 475.3 km
Velocity 7.63 km/s
Sub-Earth Point 14.69°N, 33.99°E
Launch Date Jan 24, 2025
Age 0.6 years
Type internet

Technical Details

Classification Payload
Mass 730.00 kg
Dry Mass 700.00 kg
Total Mass 730.00 kg
Length 0.30 m
Diameter 4.10 m
Span 29.00 m
Shape Box + pan
Manufacturer SPXS
Bus Type Starlink V2M
Phase Status In Orbit
Owner/State SPXS/US

Large Constellations

Loading constellations...